sat.trackr.live / text

‹ back to catalog

MUOS-2

NORAD 39206 · 2013-036A

PAYLOAD ACTIVE UNKNOWN

§ Identity

Operator
Country
US
Launch date
2013-07-19
Launch site
AFETR
Launch vehicle
Mass (kg)
RCS (m²)
23.11

Purposes: comms

External: N2YO · Heavens-Above · Gunter

§ Orbital elements

Epoch: 2026-09-14T18:29:42.121824Z

Period
1,436.09 min
Inclination
5.1721°
Eccentricity
0.0057060
Mean motion
1.00271994 rev/d
Perigee alt
35,545.9 km
Apogee alt
36,027.1 km
Semi-major
42,164.7 km
B*
0.0000e+0
RAAN
45.5466°
Arg perigee
177.5781°
Mean anomaly
220.0237°
Rev number
4,809

§ Raw data

MUOS-21 39206U 13036A   26257.77062641 -.00000019  00000+0  00000+0 0  99972 39206   5.1721  45.5466 0057060 177.5781 220.0237  1.00271994 48092

JSON: /api/v1/satellites/39206 · /tle

For live sub-satellite position, see the globe view (requires WebGL).

§ Visibility from observer

Set your observer location to see the next 7 days of passes ≥ 10°. The values pass through the URL so the page stays shareable.

No JS? Fill the form by hand. The geolocation button needs JavaScript.